Weather History for KMGW - November, 2012

Change the Weather History Date:

Wednesday, November 7, 2012

  Actual Average Record
Temperature  
Mean Temperature 37 °F 48 °F  
Max Temperature 43 °F 57 °F 75 °F (1996)
Min Temperature 31 °F 39 °F 20 °F (1973)
Degree Days  
Heating Degree Days 28 17  
Month to date heating degree days 176 114  
Since 1 July heating degree days 594 556  
Cooling Degree Days 0 0  
Month to date cooling degree days 0 0  
Year to date cooling degree days 1141 813  
Moisture  
Dew Point 26 °F    
Average Humidity 64    
Maximum Humidity 75    
Minimum Humidity 53    
Precipitation  
Precipitation 0.00 in 0.11 in - ()
Month to date precipitation 0.09 0.77  
Year to date precipitation 29.91 36.23  
Sea Level Pressure  
Sea Level Pressure 29.97 in    
Wind  
Wind Speed 4 mph (NE)    
Max Wind Speed 9 mph    
Max Gust Speed 13 mph    
Visibility 10 miles    
Events      
T = Trace of Precipitation, MM = Missing Value Source: NWS Daily Summary

Daily Weather History Graph

Daily Weather History Graph

Search for Another Location

Airport or City:

Trip Planner

Search our weather history database for the weather conditions in past years. The results will help you decide how hot, cold, wet, or windy it might be!

Date:

Astronomy

Nov. 07, 2012 Rise Set
Actual Time 6:55 AM EST 5:10 PM EST
Civil Twilight 6:27 AM EST 5:39 PM EST
Nautical Twilight 5:54 AM EST 6:11 PM EST
Astronomical Twilight 5:23 AM EST 6:42 PM EST
Moon No Moon Rise 1:17 PM EST (11/7)
Length of Visible Light 11h 12m
Length of Day
10h 15m
Last Quarter, 43% of the Moon is Illuminated
Nov 7
Last Quarter
Nov 13
New
Nov 20
First Quarter
Nov 28
Full
Dec 6
Last Quarter

Hourly Weather History & Observations

Time (EST) Temp. Windchill Dew Point Humidity Pressure Visibility Wind Dir Wind Speed Gust Speed Precip Events Conditions
12:53 AM 36.0 °F 32.1 °F 25.0 °F 64% 29.95 in 10.0 mi ESE 4.6 mph - N/A   Clear
1:53 AM 36.0 °F - 25.0 °F 64% 29.93 in 10.0 mi Calm Calm - N/A   Clear
2:53 AM 35.1 °F - 25.0 °F 67% 29.92 in 10.0 mi Calm Calm - N/A   Clear
3:53 AM 35.1 °F 32.2 °F 25.0 °F 67% 29.92 in 10.0 mi East 3.5 mph - N/A   Clear
4:53 AM 35.1 °F - 26.1 °F 70% 29.93 in 10.0 mi Calm Calm - N/A   Clear
5:53 AM 34.0 °F 29.8 °F 25.0 °F 70% 29.92 in 10.0 mi ENE 4.6 mph - N/A   Clear
6:53 AM 35.1 °F 32.2 °F 25.0 °F 67% 29.93 in 10.0 mi ENE 3.5 mph - N/A   Clear
7:53 AM 34.0 °F - 26.1 °F 73% 29.95 in 9.0 mi Calm Calm - N/A   Clear
8:53 AM 36.0 °F 32.1 °F 26.1 °F 67% 29.96 in 10.0 mi East 4.6 mph - N/A   Clear
9:53 AM 37.9 °F 32.1 °F 25.0 °F 60% 29.96 in 10.0 mi ENE 8.1 mph - N/A   Clear
10:53 AM 39.0 °F 35.7 °F 26.1 °F 60% 29.97 in 10.0 mi Variable 4.6 mph - N/A   Clear
11:53 AM 41.0 °F 39.0 °F 27.0 °F 57% 29.95 in 10.0 mi Variable 3.5 mph - N/A   Clear
12:53 PM 41.0 °F 38.0 °F 27.0 °F 57% 29.95 in 10.0 mi NNE 4.6 mph - N/A   Clear
1:53 PM 42.1 °F 37.7 °F 26.1 °F 53% 29.95 in 10.0 mi NNE 6.9 mph - N/A   Clear
2:53 PM 42.1 °F 37.7 °F 27.0 °F 55% 29.95 in 10.0 mi North 6.9 mph - N/A   Clear
3:53 PM 41.0 °F 37.1 °F 26.1 °F 55% 29.97 in 10.0 mi NE 5.8 mph - N/A   Clear
4:53 PM 39.9 °F 35.8 °F 26.1 °F 58% 29.99 in 10.0 mi North 5.8 mph - N/A   Clear
6:53 PM 37.9 °F 32.1 °F 25.0 °F 60% 30.03 in 10.0 mi North 8.1 mph - N/A   Clear
7:53 PM 36.0 °F 32.1 °F 25.0 °F 64% 30.04 in 10.0 mi North 4.6 mph - N/A   Clear
8:53 PM 35.1 °F - 25.0 °F 67% 30.05 in 10.0 mi Calm Calm - N/A   Clear
9:53 PM 36.0 °F - 25.0 °F 64% 30.05 in 10.0 mi Calm Calm - N/A   Clear
10:53 PM 33.1 °F - 25.0 °F 72% 30.05 in 10.0 mi Calm Calm - N/A   Clear
11:53 PM 32.0 °F - 26.1 °F 79% 30.05 in 10.0 mi Calm Calm - N/A   Clear